Weather History for Marianna, FL

Change the Weather History Date:

Wednesday, August 27, 2014

  Actual Average Record
Temperature  
Mean Temperature 82 °F 81 °F  
Max Temperature 93 °F 91 °F 102 °F (2011)
Min Temperature 70 °F 72 °F 67 °F (2013)
Degree Days  
Heating Degree Days 0    
Month to date heating degree days 0  
Since 1 June heating degree days 0  
Since 1 July heating degree days 0  
Cooling Degree Days 17    
Month to date cooling degree days 504  
Year to date cooling degree days 1958  
Since 1 June cooling degree days 1524  
Growing Degree Days 32 (Base 50)    
Moisture  
Dew Point 69 °F    
Average Humidity 69    
Maximum Humidity 100    
Minimum Humidity 38    
Precipitation  
Precipitation 0.00 in 0.12 in 0.83 in (2002)
Month to date precipitation 3.37 4.91  
Year to date precipitation 42.59 37.81  
Sea Level Pressure  
Sea Level Pressure 30.00 in    
Wind  
Wind Speed 4 mph (NE)    
Max Wind Speed 13 mph    
Max Gust Speed 16 mph    
Visibility 10 miles    
Events      
T = Trace of Precipitation, MM = Missing Value Source: NWS Daily Summary

Daily Weather History Graph

Daily Weather History Graph

Search for Another Location

Airport:

Trip Planner

Search our weather history database for the weather conditions in past years. The results will help you decide how hot, cold, wet, or windy it might be!

Date:

Astronomy

Aug. 27, 2014 Rise Set
Actual Time 6:14 AM CDT 7:09 PM CDT
Civil Twilight 5:49 AM CDT 7:34 PM CDT
Nautical Twilight 5:20 AM CDT 8:03 PM CDT
Astronomical Twilight 4:49 AM CDT 8:33 PM CDT
Moon 7:58 AM CDT (8/27) 8:13 PM CDT (8/27)
Length of Visible Light 13h 45m
Length of Day
12h 55m
Waxing Crescent, 4% of the Moon is Illuminated
Aug 27
Waxing Crescent
Sep 2
First Quarter
Sep 8
Full
Sep 15
Last Quarter
Sep 24
New

Hourly Weather History & Observations

Time (CDT) Temp. Heat Index Dew Point Humidity Pressure Visibility Wind Dir Wind Speed Gust Speed Precip Events Conditions
12:53 AM 73.9 °F - 72.0 °F 93% 29.99 in 10.0 mi Calm Calm - N/A   Clear
1:53 AM 73.0 °F - 71.1 °F 93% 29.99 in 10.0 mi Calm Calm - N/A   Clear
2:53 AM 72.0 °F - 71.1 °F 97% 29.99 in 10.0 mi NE 3.5 mph - N/A   Clear
3:53 AM 72.0 °F - 71.1 °F 97% 29.99 in 10.0 mi Calm Calm - N/A   Clear
4:53 AM 72.0 °F - 71.1 °F 97% 29.99 in 10.0 mi Calm Calm - N/A   Clear
5:53 AM 71.1 °F - 71.1 °F 100% 30.01 in 10.0 mi Calm Calm - N/A   Clear
6:53 AM 72.0 °F - 71.1 °F 97% 30.03 in 10.0 mi Calm Calm - N/A   Clear
7:53 AM 77.0 °F - 73.0 °F 88% 30.04 in 10.0 mi East 4.6 mph - N/A   Clear
8:53 AM 80.1 °F 83.8 °F 72.0 °F 76% 30.05 in 10.0 mi SSE 6.9 mph - N/A   Clear
9:53 AM 84.0 °F 88.4 °F 70.0 °F 63% 30.05 in 10.0 mi SE 4.6 mph - N/A   Clear
10:53 AM 86.0 °F 90.7 °F 70.0 °F 59% 30.05 in 10.0 mi NNE 4.6 mph - N/A   Clear
11:53 AM 89.1 °F 92.9 °F 68.0 °F 50% 30.04 in 10.0 mi East 5.8 mph - N/A   Mostly Cloudy
12:53 PM 91.0 °F 93.8 °F 66.0 °F 44% 30.02 in 10.0 mi North 10.4 mph - N/A   Partly Cloudy
2:53 PM 93.0 °F 94.6 °F 64.0 °F 38% 29.97 in 10.0 mi NW 10.4 mph - N/A   Partly Cloudy
3:53 PM 91.9 °F 93.3 °F 64.0 °F 39% 29.96 in 10.0 mi North 6.9 mph - N/A   Clear
4:53 PM 91.9 °F 92.9 °F 63.0 °F 38% 29.95 in 10.0 mi North 10.4 mph - N/A   Clear
5:53 PM 91.0 °F 92.6 °F 64.0 °F 41% 29.95 in 10.0 mi NE 9.2 mph - N/A   Partly Cloudy
6:53 PM 88.0 °F 89.3 °F 64.0 °F 45% 29.95 in 10.0 mi NNE 4.6 mph - N/A   Clear
7:53 PM 82.9 °F 85.4 °F 66.9 °F 58% 29.97 in 10.0 mi Calm Calm - N/A   Clear
8:53 PM 80.1 °F 82.7 °F 68.0 °F 67% 29.98 in 10.0 mi Calm Calm - N/A   Clear
9:53 PM 77.0 °F - 68.0 °F 74% 29.99 in 10.0 mi Calm Calm - N/A   Clear
10:53 PM 75.0 °F - 70.0 °F 84% 29.99 in 10.0 mi Calm Calm - N/A   Clear
11:53 PM 75.9 °F - 68.0 °F 76% 30.00 in 10.0 mi South 3.5 mph - N/A   Clear